When you browse on this site, cookies collect data to enhance your experience and personalize the content and advertising you see.
Visit our Privacy Policy to learn more. By continuing to use the site, you agree to this use of cookies and data.
  • In Spain
  • List of Countries
  • For 7 days
  • Water Temperature
  • Weather Map
  • Weather Widgets
  • user-avatar
    Login

    Hourly Weather Balho

    Today, 28 February, Friday

    Time Temperature Precipitation Wind Pressure Humidity
    00:00 +27°C° 0 mm 1 mps 738 mmHg 69%
    01:00 +27°C° 0 mm 1 mps 738 mmHg 70%
    02:00 +26°C° 0 mm 1 mps 737 mmHg 71%
    03:00 +26°C° 0 mm 1 mps 737 mmHg 72%
    04:00 +25°C° 0 mm 1 mps 737 mmHg 74%
    05:00 +25°C° 0 mm 1 mps 737 mmHg 75%
    06:00 +24°C° 0 mm 1 mps 737 mmHg 76%
    07:00 +26°C° 0 mm 1 mps 738 mmHg 68%
    08:00 +27°C° 0 mm 1 mps 739 mmHg 61%
    09:00 +29°C° 0 mm 1 mps 739 mmHg 53%
    10:00 +31°C° 0 mm 2 mps 739 mmHg 43%
    11:00 +34°C° 0 mm 2 mps 739 mmHg 33%
    12:00 +36°C° 0 mm 2 mps 738 mmHg 23%
    13:00 +37°C° 0 mm 3 mps 737 mmHg 20%
    14:00 +38°C° 0 mm 3 mps 737 mmHg 18%
    15:00 +39°C° 0 mm 3 mps 736 mmHg 15%
    16:00 +38°C° 0 mm 4 mps 736 mmHg 16%
    17:00 +37°C° 0 mm 5 mps 735 mmHg 16%
    18:00 +36°C° 0 mm 6 mps 735 mmHg 17%
    19:00 +35°C° 0 mm 5 mps 736 mmHg 21%
    20:00 +33°C° 0 mm 4 mps 736 mmHg 25%
    21:00 +30°C° 0 mm 4 mps 736 mmHg 28%
    22:00 +30°C° 0 mm 3 mps 736 mmHg 30%
    23:00 +29°C° 0 mm 2 mps 736 mmHg 32%

    Tomorrow, 29 February, Saturday

    Time Temperature Precipitation Wind Pressure Humidity
    00:00 +28°C° 0 mm 2 mps 736 mmHg 34%
    01:00 +27°C° 0 mm 2 mps 735 mmHg 37%
    02:00 +27°C° 0 mm 2 mps 735 mmHg 40%
    03:00 +26°C° 0 mm 2 mps 735 mmHg 42%
    04:00 +25°C° 0 mm 2 mps 735 mmHg 48%
    05:00 +25°C° 0 mm 1 mps 735 mmHg 54%
    06:00 +24°C° 0 mm 1 mps 735 mmHg 60%
    07:00 +26°C° 0 mm 1 mps 736 mmHg 54%
    08:00 +27°C° 0 mm 2 mps 737 mmHg 49%
    09:00 +29°C° 0 mm 2 mps 737 mmHg 43%
    10:00 +31°C° 0 mm 2 mps 737 mmHg 35%
    11:00 +34°C° 0 mm 3 mps 737 mmHg 28%
    12:00 +36°C° 0 mm 3 mps 736 mmHg 21%
    13:00 +37°C° 0 mm 3 mps 736 mmHg 18%
    14:00 +38°C° 0 mm 3 mps 735 mmHg 15%
    15:00 +39°C° 0 mm 3 mps 734 mmHg 13%
    16:00 +38°C° 0 mm 4 mps 734 mmHg 13%
    17:00 +39°C° 0 mm 5 mps 734 mmHg 14%
    18:00 +38°C° 0 mm 6 mps 734 mmHg 14%
    19:00 +35°C° 0 mm 5 mps 734 mmHg 18%
    20:00 +33°C° 0 mm 3 mps 735 mmHg 21%
    21:00 +30°C° 0 mm 2 mps 735 mmHg 25%
    22:00 +29°C° 0 mm 2 mps 735 mmHg 29%
    23:00 +28°C° 0 mm 2 mps 735 mmHg 32%

    Day after tomorrow, 1 March, Sunday

    Time Temperature Precipitation Wind Pressure Humidity
    00:00 +27°C° 0 mm 2 mps 735 mmHg 36%
    01:00 +27°C° 0 mm 1 mps 735 mmHg 42%
    02:00 +26°C° 0 mm 1 mps 734 mmHg 47%
    03:00 +25°C° 0 mm 1 mps 734 mmHg 52%
    04:00 +23°C° 0 mm 0 mps 735 mmHg 54%
    05:00 +22°C° 0 mm 0 mps 735 mmHg 55%
    06:00 +22°C° 0 mm 0 mps 735 mmHg 57%
    07:00 +24°C° 0 mm 0 mps 736 mmHg 50%
    08:00 +26°C° 0 mm 0 mps 737 mmHg 43%
    09:00 +29°C° 0 mm 1 mps 738 mmHg 36%
    10:00 +31°C° 0 mm 1 mps 737 mmHg 30%
    11:00 +33°C° 0 mm 1 mps 737 mmHg 24%
    12:00 +35°C° 0 mm 1 mps 737 mmHg 18%
    13:00 +36°C° 0 mm 1 mps 736 mmHg 17%
    14:00 +37°C° 0 mm 1 mps 735 mmHg 15%
    15:00 +39°C° 0 mm 1 mps 735 mmHg 13%
    16:00 +39°C° 0 mm 2 mps 735 mmHg 16%
    17:00 +38°C° 0 mm 4 mps 735 mmHg 19%
    18:00 +37°C° 0 mm 5 mps 735 mmHg 22%
    19:00 +35°C° 0 mm 4 mps 735 mmHg 28%
    20:00 +33°C° 0 mm 4 mps 736 mmHg 33%
    21:00 +31°C° 0 mm 3 mps 736 mmHg 38%
    22:00 +30°C° 0 mm 3 mps 736 mmHg 42%
    23:00 +29°C° 0 mm 3 mps 736 mmHg 46%

    2 March, Monday

    Time Temperature Precipitation Wind Pressure Humidity
    00:00 +28°C° 0 mm 3 mps 736 mmHg 50%
    01:00 +27°C° 0 mm 3 mps 736 mmHg 56%
    02:00 +27°C° 0 mm 3 mps 736 mmHg 63%
    03:00 +26°C° 0 mm 2 mps 736 mmHg 70%
    04:00 +26°C° 0 mm 2 mps 736 mmHg 73%
    05:00 +26°C° 0 mm 1 mps 736 mmHg 75%
    06:00 +25°C° 0 mm 1 mps 736 mmHg 77%
    07:00 +26°C° 0 mm 1 mps 737 mmHg 73%
    08:00 +27°C° 0 mm 1 mps 738 mmHg 68%
    09:00 +28°C° 0 mm 1 mps 739 mmHg 63%
    10:00 +30°C° 0 mm 1 mps 738 mmHg 56%
    11:00 +32°C° 0 mm 1 mps 738 mmHg 49%
    12:00 +33°C° 0 mm 1 mps 738 mmHg 42%
    13:00 +35°C° 0 mm 1 mps 737 mmHg 38%
    14:00 +37°C° 0 mm 2 mps 736 mmHg 34%
    15:00 +38°C° 0 mm 2 mps 735 mmHg 30%
    16:00 +37°C° 0 mm 3 mps 735 mmHg 33%
    17:00 +37°C° 0 mm 4 mps 735 mmHg 37%
    18:00 +36°C° 0 mm 6 mps 735 mmHg 40%
    19:00 +34°C° 0 mm 5 mps 736 mmHg 47%
    20:00 +32°C° 0 mm 4 mps 736 mmHg 55%
    21:00 +29°C° 0 mm 3 mps 736 mmHg 62%
    22:00 +29°C° 0 mm 3 mps 736 mmHg 65%
    23:00 +28°C° 0 mm 3 mps 736 mmHg 68%

    3 March, Tuesday

    Time Temperature Precipitation Wind Pressure Humidity
    00:00 +28°C° 0 mm 2 mps 736 mmHg 70%
    01:00 +27°C° 0 mm 2 mps 736 mmHg 72%
    02:00 +27°C° 0 mm 2 mps 736 mmHg 74%
    03:00 +27°C° 0 mm 2 mps 736 mmHg 76%
    04:00 +26°C° 0 mm 2 mps 736 mmHg 77%
    05:00 +26°C° 0 mm 1 mps 737 mmHg 78%
    06:00 +26°C° 0 mm 1 mps 737 mmHg 79%
    07:00 +27°C° 0 mm 1 mps 738 mmHg 74%
    08:00 +28°C° 0 mm 1 mps 739 mmHg 69%
    09:00 +29°C° 0 mm 1 mps 739 mmHg 64%
    10:00 +30°C° 0 mm 1 mps 739 mmHg 57%
    11:00 +32°C° 0 mm 1 mps 739 mmHg 49%
    12:00 +34°C° 0 mm 1 mps 738 mmHg 42%
    13:00 +35°C° 0 mm 1 mps 737 mmHg 38%
    14:00 +37°C° 0 mm 2 mps 737 mmHg 34%
    15:00 +39°C° 0 mm 2 mps 736 mmHg 31%
    16:00 +38°C° 0 mm 3 mps 736 mmHg 34%
    17:00 +37°C° 0 mm 4 mps 736 mmHg 37%
    18:00 +36°C° 0 mm 5 mps 736 mmHg 40%
    19:00 +34°C° 0 mm 4 mps 736 mmHg 44%
    20:00 +33°C° 0 mm 4 mps 736 mmHg 47%
    21:00 +30°C° 0 mm 3 mps 736 mmHg 51%
    22:00 +30°C° 0 mm 3 mps 736 mmHg 53%
    23:00 +29°C° 0 mm 2 mps 736 mmHg 55%

    4 March, Wednesday

    Time Temperature Precipitation Wind Pressure Humidity
    00:00 +28°C° 0 mm 2 mps 736 mmHg 57%
    01:00 +27°C° 0 mm 2 mps 736 mmHg 60%
    02:00 +27°C° 0 mm 2 mps 735 mmHg 64%
    03:00 +26°C° 0 mm 2 mps 735 mmHg 68%
    04:00 +26°C° 0 mm 2 mps 736 mmHg 70%
    05:00 +25°C° 0 mm 1 mps 736 mmHg 72%
    06:00 +25°C° 0 mm 1 mps 737 mmHg 74%
    07:00 +26°C° 0 mm 1 mps 737 mmHg 66%
    08:00 +27°C° 0 mm 2 mps 738 mmHg 58%
    09:00 +29°C° 0 mm 2 mps 738 mmHg 50%
    10:00 +31°C° 0 mm 2 mps 738 mmHg 41%
    11:00 +35°C° 0 mm 3 mps 738 mmHg 33%
    12:00 +37°C° 0 mm 4 mps 737 mmHg 25%
    13:00 +38°C° 0 mm 4 mps 736 mmHg 22%
    14:00 +40°C° 0 mm 5 mps 736 mmHg 20%
    15:00 +41°C° 0 mm 5 mps 735 mmHg 18%
    16:00 +39°C° 0 mm 6 mps 735 mmHg 20%
    17:00 +38°C° 0 mm 6 mps 735 mmHg 22%
    18:00 +36°C° 0 mm 6 mps 735 mmHg 25%
    19:00 +34°C° 0 mm 5 mps 735 mmHg 28%
    20:00 +32°C° 0 mm 5 mps 735 mmHg 32%
    21:00 +30°C° 0 mm 4 mps 736 mmHg 36%
    22:00 +29°C° 0 mm 3 mps 736 mmHg 39%
    23:00 +28°C° 0 mm 3 mps 735 mmHg 43%
    Show more